Location: Riverton
(43.0250°N, 108.3790°W)
Time: 22:13:52
(UTC-06:00)

JAS-2 - Visible Passes

Search period start: 24 October 2014 00:00
Search period end: 02 November 2014 23:00
Orbit: 801 x 1321 km, 98.5° (Epoch: 24 October)

Date Brightness Start Highest point End Pass type
(mag) Time Alt. Az. Time Alt. Az. Time Alt. Az.
24 Oct 11.8 05:51:32 10° NNE 05:58:27 34° E 06:05:21 10° SSE visible
24 Oct 12.6 19:37:06 10° SW 19:40:50 17° W 19:44:51 10° NW visible
25 Oct 12.9 04:59:05 10° NE 05:02:42 14° E 05:06:18 10° ESE visible
25 Oct 10.5 06:41:06 10° NNE 06:48:54 71° ESE 06:56:40 10° S visible
25 Oct 11.0 18:39:23 10° SSW 18:45:04 45° W 18:51:31 10° NNW visible
26 Oct 11.9 05:46:48 10° NNE 05:53:38 32° E 06:00:23 10° SSE visible
26 Oct 12.5 19:31:44 10° SW 19:35:52 19° W 19:40:20 10° NW visible
27 Oct 13.0 04:54:42 10° ENE 04:57:49 13° E 05:00:55 10° ESE visible
27 Oct 10.6 06:36:18 10° NNE 06:44:07 67° E 06:51:50 10° S visible
27 Oct 10.9 18:34:18 10° S 18:40:09 49° W 18:46:48 10° NNW visible
28 Oct 12.0 05:42:06 10° NNE 05:48:49 30° E 05:55:24 10° SSE visible
28 Oct 12.4 19:26:26 10° SW 19:30:55 20° W 19:35:47 10° NW visible
29 Oct 13.0 04:50:28 10° ENE 04:52:56 12° E 04:55:23 10° E visible
29 Oct 10.7 06:31:32 10° NNE 06:39:21 64° E 06:46:58 10° S visible
29 Oct 10.7 18:29:14 10° S 18:35:14 53° W 18:42:06 10° NNW visible
30 Oct 12.1 05:37:24 10° NE 05:43:59 28° E 05:50:23 10° SSE visible
30 Oct 12.3 19:21:10 10° SW 19:25:58 22° W 19:31:13 10° NW visible
31 Oct 13.1 04:46:34 10° ENE 04:48:02 11° E 04:49:30 10° E visible
31 Oct 10.8 06:26:46 10° NNE 06:34:34 60° E 06:42:05 10° S visible
31 Oct 10.6 18:24:11 10° S 18:30:21 57° W 18:37:23 10° NNW visible
01 Nov 12.1 05:32:44 10° NE 05:39:08 27° E 05:45:20 10° SE visible
01 Nov 10.1 07:16:51 10° N 07:24:41 69° WNW 07:32:14 10° SSW visible
01 Nov 12.2 19:15:56 10° SW 19:21:02 24° W 19:26:38 10° NW visible
02 Nov 10.8 05:22:01 10° NNE 05:29:46 57° E 05:37:10 10° S visible
02 Nov 10.5 17:19:09 10° S 17:25:28 61° W 17:32:40 10° NNW visible
